100LL.CA
Aviation Fuel Pricing for Canadians
Please upgrade your browser - Tested with IE9, FireFox, Chrome, Safari

Fuel Prices Airport Info Airport List METAR / TAF Kneeboard RSS

Reference Airport: Fort Chipewyan, AB
N 58 46 03   W 111 07 03

CYPY Fort Chipewyan, AB
WEATHER
METARCYPY 120033Z AUTO VRB02KT 9SM SCT004 BKN070 BKN120 OVC140 M06/M06 A2996 RMK SLP167
TAFTAF AMD CYPY 120006Z 1200/1207 10005KT P6SM SCT004 BKN120 TEMPO 1200/1207 3SM -SN BR BKN004 BECMG 1205/1207 26007KT RMK FCST BASED ON AUTO OBS. NXT FCST WILL BE ISSUED AT 121245Z
REF N 58 46 03  W 111 07 03    3NE    15E (2013)
UTC-7(6)    Elev 761    A5023 LO1 HI2 CAP
OPR Muni of Wood Buffalo 780-743-7000
Cert Not attended H24
PFA-1 avbl 15-24Z Mon-Fri exc hols D-2,3,5
FLT PLN NOTAM FILE CYPY
FIC Edmonton 866-WXBRIEF (Toll free within Canada) or 866-541-4102 (Toll free within Canada & USA)
ACCEdmonton IFR 888-358-7526
WXMETAR AUTO H24 (see COMM) TAF 13-22Z, issue times: 13, 18Z. WxCam
SERVICES
PRICES100LL public: 2.426; current as of 2013-08-31.
RWY DATARwy 04(037)/22(217) 5000x150 asphalt Rwy 22 up 0.63% first 472' then down 1.24%
RCROpr CRFI, PLR/PCN
LIGHTING04-(TE ME) P2, 22-(TE ME) P2 ARCAL-123.2 type K
COMM
RCOEdmonton rdo 123.475 (FISE) 126.7(bcst)
ATFtfc 123.2 5NM 3800 ASL
AWOS128.0
NAV
NDBPY 207 (M) N58 45 42 W111 06 30
CAUTIONDue to rwy slope, acft at rwy ends may not be visible to pilots on opposite ends of rwy. Wildlife in vic of rwy.
Effective 0901Z 12 October 2017 to 0901Z 07 December 2017